Weather History for Bauerfield Efate, Vanuatu

Change the Weather History Date:

Wednesday, August 7, 2013

  Actual Average Record
Temperature  
Mean Temperature 73 °F -  
Max Temperature 82 °F - - ()
Min Temperature 64 °F - - ()
Cooling Degree Days 8    
Growing Degree Days 23 (Base 50)    
Moisture  
Dew Point 68 °F    
Average Humidity 82    
Maximum Humidity 100    
Minimum Humidity 58    
Precipitation  
Precipitation 0.00 in - - ()
Sea Level Pressure  
Sea Level Pressure 29.93 in    
Wind  
Wind Speed 4 mph ()    
Max Wind Speed 13 mph    
Max Gust Speed -    
Visibility 7.6 miles    
Events      
T = Trace of Precipitation, MM = Missing Value Source: Averaged Metar Reports

Daily Weather History Graph

Daily Weather History Graph

Search for Another Location

Airport:

Trip Planner

Search our weather history database for the weather conditions in past years. The results will help you decide how hot, cold, wet, or windy it might be!

Date:

Astronomy

Aug. 07, 2013 Rise Set
Actual Time 6:10 AM VUT 5:34 PM VUT
Civil Twilight 5:48 AM VUT 5:57 PM VUT
Nautical Twilight 5:22 AM VUT 6:23 PM VUT
Astronomical Twilight 4:56 AM VUT 6:49 PM VUT
Moon 5:57 AM VUT (8/7) 5:48 PM VUT (8/7)
Length of Visible Light 12h 09m
Length of Day
11h 24m
New Moon, 0% of the Moon is Illuminated
Aug 7
New Moon
Aug 14
First Quarter
Aug 21
Full
Aug 28
Last Quarter
Sep 5
New

Hourly Weather History & Observations

Time (VUT) Temp. Heat Index Dew Point Humidity Pressure Visibility Wind Dir Wind Speed Gust Speed Precip Events Conditions
12:00 AM 71.6 °F - 66.2 °F 83% 29.95 in 6.2 mi ESE 3.5 mph - N/A   Overcast
1:00 AM 71.6 °F - 66.2 °F 83% 29.95 in 6.2 mi East 3.5 mph - N/A   Overcast
2:00 AM 70 °F - 67 °F 88% 29.94 in 12 mi 2.3 mph - -   Partly Cloudy
2:00 AM 69.8 °F - 66.2 °F 88% 29.92 in 6.2 mi Variable 2.3 mph - N/A   Scattered Clouds
3:00 AM 69.8 °F - 66.2 °F 88% 29.92 in 6.2 mi North 3.5 mph - N/A   Scattered Clouds
4:00 AM 69.8 °F - 68.0 °F 94% 29.92 in 6.2 mi Variable 1.2 mph - N/A   Scattered Clouds
5:00 AM 66 °F - 66 °F 100% 29.95 in 12 mi NNE 3.5 mph - -   Partly Cloudy
6:00 AM 64.4 °F - 64.4 °F 100% 29.95 in 6.2 mi Variable 1.2 mph - N/A   Mostly Cloudy
7:00 AM 68.0 °F - 66.2 °F 94% 29.98 in 6.2 mi East 3.5 mph - N/A   Partly Cloudy
8:00 AM 72 °F - 70 °F 92% 29.99 in 12 mi Calm Calm - -   Partly Cloudy
8:00 AM 71.6 °F - 69.8 °F 94% 29.98 in 6.2 mi Calm Calm - N/A   Partly Cloudy
9:00 AM 78.8 °F - 69.8 °F 74% 29.98 in 6.2 mi East 9.2 mph - N/A   Partly Cloudy
10:00 AM 80.6 °F 83.9 °F 69.8 °F 70% 29.98 in 6.2 mi East 12.7 mph - N/A   Scattered Clouds
11:00 AM 82 °F - 69 °F 58% 29.98 in 12 mi East 10.4 mph - -   Partly Cloudy
11:00 AM 82.4 °F 86.3 °F 69.8 °F 66% 29.98 in 6.2 mi East 10.4 mph - N/A   Scattered Clouds
12:00 PM 78.8 °F - 69.8 °F 74% 29.95 in 6.2 mi East 12.7 mph - N/A   Scattered Clouds
1:00 PM 78.8 °F - 68.0 °F 69% 29.86 in 6.2 mi East 11.5 mph - N/A   Scattered Clouds
2:00 PM 82 °F - 69 °F 58% 29.89 in 12 mi ENE 9.2 mph - -   Partly Cloudy
2:00 PM 82.4 °F 86.3 °F 69.8 °F 66% 29.89 in 6.2 mi ENE 9.2 mph - N/A   Scattered Clouds
3:00 PM 82.4 °F 86.3 °F 69.8 °F 66% 29.89 in 6.2 mi East 10.4 mph - N/A   Scattered Clouds
4:00 PM 78.8 °F - 68.0 °F 69% 29.86 in 6.2 mi East 11.5 mph - N/A   Scattered Clouds
5:00 PM 77.0 °F - 69.8 °F 78% 29.89 in 6.2 mi ENE 9.2 mph - N/A   Scattered Clouds
6:00 PM 73.4 °F - 68.0 °F 83% 29.89 in 6.2 mi East 5.8 mph - N/A   Partly Cloudy
7:00 PM 73.4 °F - 69.8 °F 88% 29.92 in 6.2 mi Variable 1.2 mph - N/A   Partly Cloudy
8:00 PM 72 °F - 69 °F 87% 29.94 in 12 mi East 2.3 mph - -   Partly Cloudy
8:00 PM 71.6 °F - 68.0 °F 88% 29.92 in 6.2 mi East 2.3 mph - N/A   Scattered Clouds
10:00 PM 71.6 °F - 68.0 °F 88% 29.92 in 6.2 mi Variable 2.3 mph - N/A   Scattered Clouds
11:00 PM 70 °F - 68 °F 93% 29.94 in 12 mi 2.3 mph - -   Partly Cloudy
11:00 PM 69.8 °F - 68.0 °F 94% 29.92 in 6.2 mi Variable 2.3 mph - N/A   Scattered Clouds